This demonstration page uses our WeatherBlox Daily Observations layout. Learn more.

Left ArrowRight Arrow

Hourly Observations for July 3, 2017

Temp ( °F °C ) Dew Point ( °F °C ) Humidity (%) Winds ( mph kmh ) Pressure ( in mb ) Visibility ( mi km ) Precip ( " mm )
12:15 am 00:15 Partly Cloudy 70 21 58 14.4 66 66 SSE 14 22 29.88 1012 10 16 0.00 0.00
12:35 am 00:35 Clear 70 21.2 57 14.1 64 64 S 10 17 29.91 1013 10 16 0.00 0.00
12:55 am 00:55 Clear 71 21.5 57 13.8 62 62 S 5 7 29.88 1012 10 16 0.00 0.00
1:15 am 01:15 Clear 69 20.3 59 15.2 73 73 NNE 8 13 29.88 1012 10 16 0.00 0.00
1:35 am 01:35 Clear 68 19.8 60 15.4 76 76 ESE 7 11 29.88 1012 10 16 0.00 0.00
1:55 am 01:55 Clear 69 20.5 58 14.3 68 68 Calm 29.91 1013 10 16 0.00 0.00
2:15 am 02:15 Clear 71 21.6 57 13.7 61 61 ESE 13 20 29.94 1014 10 16 0.00 0.00
2:35 am 02:35 Clear 71 21.8 56 13.2 58 58 ESE 14 22 29.94 1014 10 16 0.00 0.00
2:55 am 02:55 Clear 72 22.3 55 12.6 54 54 ESE 9 15 29.94 1014 10 16 0.00 0.00
3:15 am 03:15 Clear 71 21.7 56 13.1 58 58 SE 6 9 29.94 1014 10 16 0.00 0.00
3:35 am 03:35 Clear 70 21.1 56 13.6 62 62 SE 9 15 29.94 1014 10 16 0.00 0.00
3:55 am 03:55 Clear 70 21 57 13.9 64 64 SE 7 11 29.94 1014 10 16 0.00 0.00
4:15 am 04:15 Clear 69 20.6 58 14.2 67 67 S 6 9 29.94 1014 10 16 0.00 0.00
4:35 am 04:35 Clear 67 19.6 58 14.5 73 73 SW 9 15 29.97 1015 10 16 0.00 0.00
4:55 am 04:55 Clear 67 19.5 58 14.2 72 72 SSW 7 11 29.97 1015 10 16 0.00 0.00
5:15 am 05:15 Clear 66 19.1 58 14.3 74 74 SSW 5 7 29.97 1015 10 16 0.00 0.00
5:35 am 05:35 Clear 66 18.8 58 14.6 77 77 S 6 9 29.94 1014 10 16 0.00 0.00
5:55 am 05:55 Clear 66 18.9 58 14.6 76 76 SW 5 7 29.94 1014 10 16 0.00 0.00
6:15 am 06:15 Sunny 65 18.1 59 15 82 82 WNW 7 11 29.94 1014 10 16 0.00 0.00
6:35 am 06:35 Sunny 64 17.7 59 15 84 84 NNW 5 7 29.97 1015 10 16 0.00 0.00
6:55 am 06:55 Sunny 64 17.5 60 15.3 87 87 NE 6 9 29.97 1015 10 16 0.00 0.00
7:15 am 07:15 Sunny 64 17.5 60 15.5 88 88 ENE 6 9 29.97 1015 10 16 0.00 0.00
7:35 am 07:35 Sunny 64 18 60 15.7 87 87 N 5 7 29.97 1015 10 16 0.00 0.00
7:55 am 07:55 Sunny 66 18.9 60 15.8 82 82 NNW 6 9 29.97 1015 10 16 0.00 0.00
8:15 am 08:15 Sunny 68 19.9 60 15.7 77 77 NW 6 9 29.97 1015 10 16 0.00 0.00
8:35 am 08:35 Sunny 68 20.2 61 15.9 76 76 NW 6 9 29.94 1014 10 16 0.00 0.00
8:55 am 08:55 Sunny 69 20.6 60 15.8 74 74 NW 6 9 29.94 1014 10 16 0.00 0.00
9:15 am 09:15 Sunny 70 21 61 16 73 73 NW 7 11 29.94 1014 10 16 0.00 0.00
9:35 am 09:35 Sunny 70 21.2 61 16.3 74 74 WNW 8 13 29.94 1014 10 16 0.00 0.00
9:55 am 09:55 Sunny 70 21.2 61 16.2 73 73 WNW 7 11 29.94 1014 10 16 0.00 0.00
10:15 am 10:15 Sunny 72 22 62 16.5 71 71 NW 6 9 29.94 1014 10 16 0.00 0.00
10:35 am 10:35 Sunny 73 22.5 62 16.7 70 70 NW 7 11 29.94 1014 10 16 0.00 0.00
10:55 am 10:55 Sunny 74 23.2 62 16.6 67 67 NW 8 13 29.94 1014 10 16 0.00 0.00
11:15 am 11:15 Sunny 75 24.1 62 16.9 64 64 NW 7 11 29.91 1013 10 16 0.00 0.00
11:35 am 11:35 Sunny 77 24.8 64 17.5 64 64 N 6 9 29.91 1013 10 16 0.00 0.00
11:55 am 11:55 Sunny 77 25.2 63 17.3 62 62 Calm 29.91 1013 10 16 0.00 0.00
12:15 pm 12:15 Sunny 80 26.4 62 16.6 55 55 NE 3 6 29.91 1013 10 16 0.00 0.00
12:35 pm 12:35 Sunny 81 27.1 62 16.5 52 52 S 3 6 29.91 1013 10 16 0.00 0.00
12:55 pm 12:55 Sunny 82 27.6 62 16.6 51 51 SSE 8 13 29.88 1012 10 16 0.00 0.00
1:15 pm 13:15 Sunny 82 27.5 62 16.6 51 51 S 10 17 29.88 1012 10 16 0.00 0.00
1:35 pm 13:35 Sunny 82 28 60 15.8 47 47 SE 7 11 29.88 1012 10 16 0.00 0.00
1:55 pm 13:55 Sunny 83 28.3 60 15.6 46 46 SE 9 15 29.88 1012 10 16 0.00 0.00
2:15 pm 14:15 Sunny 83 28.4 60 15.5 45 45 SE 7 11 29.88 1012 10 16 0.00 0.00
2:35 pm 14:35 Sunny 83 28.6 59 15.1 44 44 SSE 8 13 29.88 1012 10 16 0.00 0.00
2:55 pm 14:55 Sunny 84 28.8 61 16 46 46 SSE 10 17 29.88 1012 10 16 0.00 0.00
3:15 pm 15:15 Sunny 84 28.8 61 16 46 46 SSE 9 15 29.88 1012 10 16 0.00 0.00
3:35 pm 15:35 Sunny 84 29 62 16.5 47 47 SE 10 17 29.88 1012 10 16 0.00 0.00
3:55 pm 15:55 Sunny 85 29.2 64 17.6 50 50 SSE 12 19 29.85 1011 10 16 0.00 0.00
4:15 pm 16:15 Sunny 85 29.2 62 16.9 47 47 SE 14 22 29.85 1011 10 16 0.00 0.00
4:35 pm 16:35 Sunny 84 28.7 63 17 49 49 SE 10 17 29.85 1011 10 16 0.00 0.00
4:55 pm 16:55 Sunny 85 29.3 63 17.2 48 48 SE 12 19 29.85 1011 10 16 0.00 0.00
5:15 pm 17:15 Sunny 85 29.3 63 17.2 48 48 SE 12 19 29.83 1010 10 16 0.00 0.00
5:35 pm 17:35 Sunny 85 29.4 64 17.5 49 49 SSE 12 19 29.83 1010 10 16 0.00 0.00
5:55 pm 17:55 Sunny 85 29.2 64 18 51 51 SSE 9 15 29.83 1010 10 16 0.00 0.00
6:15 pm 18:15 Sunny 84 28.8 65 18.3 53 53 SSE 12 19 29.83 1010 10 16 0.00 0.00
6:35 pm 18:35 Sunny 83 28.6 64 17.8 52 52 SSE 12 19 29.83 1010 10 16 0.00 0.00
6:55 pm 18:55 Sunny 83 28.4 64 17.6 52 52 SE 9 15 29.83 1010 10 16 0.00 0.00
7:15 pm 19:15 Sunny 82 28 62 16.7 50 50 SE 9 15 29.80 1009 10 16 0.00 0.00
7:35 pm 19:35 Sunny 82 27.5 62 16.8 52 52 SE 8 13 29.80 1009 10 16 0.00 0.00
7:55 pm 19:55 Sunny 80 26.9 63 17.3 56 56 SSE 7 11 29.83 1010 10 16 0.00 0.00
8:15 pm 20:15 Sunny 79 26.2 62 16.7 56 56 SE 7 11 29.85 1011 10 16 0.00 0.00
8:35 pm 20:35 Sunny 78 25.6 62 16.5 57 57 SE 9 15 29.88 1012 10 16 0.00 0.00
8:55 pm 20:55 Sunny 77 25 63 17.3 62 62 SE 6 9 29.88 1012 10 16 0.00 0.00
9:15 pm 21:15 Clear 75 24.1 63 17.3 66 66 SE 7 11 29.88 1012 10 16 0.00 0.00
9:35 pm 21:35 Clear 74 23.1 63 17 69 69 SE 3 6 29.91 1013 10 16 0.00 0.00
9:55 pm 21:55 Clear 72 22.3 63 17 72 72 Calm 29.91 1013 10 16 0.00 0.00
10:15 pm 22:15 Clear 69 20.7 64 17.9 84 84 Calm 29.91 1013 10 16 0.00 0.00
10:35 pm 22:35 Clear 70 21 64 17.9 83 83 Calm 29.94 1014 10 16 0.00 0.00
10:55 pm 22:55 Partly Cloudy 70 21.3 65 18.4 84 84 Calm 29.94 1014 10 16 0.00 0.00
11:15 pm 23:15 Mostly Cloudy 71 21.9 65 18.1 79 79 S 3 6 29.94 1014 10 16 0.00 0.00
11:35 pm 23:35 Partly Cloudy 72 22 64 17.8 77 77 Calm 29.91 1013 10 16 0.00 0.00
11:55 pm 23:55 Clear 72 22 64 17.6 76 76 SSW 5 7 29.91 1013 10 16 0.00 0.00

Powered by AerisWeather